Location: La Chapelle
(48.3135°N, 1.3085°W)
Time: 07:30:55
(UTC+00:00)

Cosmos 1777 Rocket - Pass Details

Date: 03 March 2021
Orbit: 759 x 775 km, 74.0° (Epoch: 11 April)

Event Time Altitude Azimuth Distance (km) Brightness Sun altitude
Rises 20:08:37 0° 334° (NNW) 3,249 7.9 -23.2°
Reaches altitude 10° 20:11:01 10° 332° (NNW) 2,316 7.1 -23.6°
Maximum altitude 20:16:12 64° 252° (WSW) 850 4.3 -24.4°
Enters shadow 20:18:21 34° 184° (S) 1,232 4.9 -24.7°
